Flag for Canada Weather past 2 weeks in Campbell River, British Columbia, Canada

Now
48 °F

Broken clouds.


Feels Like: 45 °F
Forecast: 47 / 51 °F
Wind: 7 mph from Southeast

Location: Campbell River Airport

Current Time: Jan 25, 2015 at 9:22:22 AM

Latest Report: Jan 25, 2015 at 9:00 AM


Visibility: 12 mi

Pressure: 30.10 "Hg

Humidity: 94%

Dew point: 46 °F

Location of Campbell RiverLocation

Historic Weather in Campbell River — Graph

°F

Campbell River temperature yesterday

Maximum temperature yesterday: 50 °F (at 2:00 PM)
Minimum temperature yesterday: 46 °F (at 6:00 AM)
Average temperature yesterday: 48 °F

Past Weeks' High & Low Weather Summary

 TemperatureHumidityPressure
High50 °F (Jan 24, 2:00 PM)100% (Jan 10, 8:00 AM)30.51 "Hg (Jan 10, 8:00 AM)
Low30 °F (Jan 19, 6:00 AM)66% (Jan 16, 1:00 PM)29.46 "Hg (Jan 18, 6:00 AM)
Average42 °F94%30.17 "Hg
* Reported Jan 10 8:00 AM — Jan 25 8:00 AM, Campbell River, Weather by CustomWeather, © 2014

Note: Actual official high and low records may vary slightly from our data, if they occured in-between our weather recording intervals... More about our weather records

Advertising

Campbell River weather history for previous 24 hours

 ConditionsComfort  
Time TempWeatherWind HumidityBarometerVisibility
8:00 AM
Jan 25
48 °FPartly cloudy.7 mph94%30.08 "Hg20 mi
7:00 AM48 °FPassing clouds.7 mph100%30.08 "Hg15 mi
6:00 AM46 °FPartly cloudy.2 mph100%30.08 "Hg15 mi
9:00 PM
Jan 24
50 °FFog.2 mph94%30.08 "Hg1 mi
8:00 PM50 °FFog.6 mph94%30.09 "Hg0 mi
7:00 PM48 °FFog.6 mph100%30.10 "Hg0 mi
6:00 PM48 °FFog.6 mph100%30.10 "Hg0 mi
5:00 PM50 °FFog.6 mph94%30.13 "Hg0 mi
4:00 PM50 °FFog.10 mph100%30.14 "Hg1 mi
3:00 PM50 °FFog.10 mph100%30.13 "Hg1 mi
2:00 PM50 °FFog.6 mph100%30.14 "Hg1 mi
1:00 PM48 °FFog.No wind100%30.16 "Hg1 mi
12:00 PM48 °FFog.7 mph100%30.18 "Hg0 mi
11:00 AM46 °FFog.5 mph100%30.19 "Hg0 mi
10:00 AM46 °FFog.3 mph100%30.19 "Hg0 mi
9:51 AM46 °FDrizzle. Fog.3 mph100%30.20 "Hg0 mi
9:00 AM46 °FDrizzle. Fog.5 mph100%30.19 "Hg1 mi
Weather by CustomWeather, © 2014

See weather overviewHow to use our weather pages